Retour au catalogue

COSMOS 1125

ActifMilitaireLEO
NORAD 11510·PAYLOAD·🇷🇺 Russia

Lancé Aug 28, 1979 depuis Plesetsk Cosmodrome

Loading…

Prochains Passages (prochaines 24 heures)

TLE

FraisSource: Space-Track

Époque: Sep 14, 2026, 07:46 UTC

1 11510U 79078A   26257.32398306  .00000081  00000-0  38291-4 0  9991
2 11510  74.0367  12.1166 0013207 219.7990 140.2194 14.34150114458219

Suivez COSMOS 1125 en temps réel avec AllMySat

Download on the App Store